Time,TemperatureF,DewpointF,PressureIn,WindDirection,WindDirectionDegrees,WindSpeedMPH,WindSpeedGustMPH,Humidity,HourlyPrecipIn,Conditions,Clouds,dailyrainin,SoftwareType,DateUTC
2013-02-12 00:01:00,54.0,29.0,-100.00,WNW,301,11.0,-999.0,38,-99.99,,,-99.99,,2013-02-12 05:01:00,
2013-02-12 00:11:00,54.0,29.0,-100.00,WNW,301,11.0,-999.0,38,-99.99,,,-99.99,,2013-02-12 05:11:00,
2013-02-12 00:21:00,53.0,26.0,-100.00,WNW,302,10.0,-999.0,35,-99.99,,,-99.99,,2013-02-12 05:21:00,
2013-02-12 00:32:00,53.0,26.0,-100.00,WNW,302,10.0,-999.0,35,-99.99,,,-99.99,,2013-02-12 05:32:00,
2013-02-12 00:42:00,53.0,26.0,-100.00,WNW,302,10.0,-999.0,35,-99.99,,,-99.99,,2013-02-12 05:42:00,
2013-02-12 00:52:00,52.0,27.0,-100.00,NW,320,7.0,-999.0,38,-99.99,,,-99.99,,2013-02-12 05:52:00,
2013-02-12 01:02:00,52.0,27.0,-100.00,NW,320,7.0,-999.0,38,-99.99,,,-99.99,,2013-02-12 06:02:00,
2013-02-12 01:12:00,52.0,27.0,-100.00,NW,320,7.0,-999.0,38,-99.99,,,-99.99,,2013-02-12 06:12:00,
2013-02-12 01:22:00,51.0,28.0,-100.00,WNW,303,9.0,-999.0,41,-99.99,,,-99.99,,2013-02-12 06:22:00,
2013-02-12 01:32:00,51.0,28.0,-100.00,WNW,303,9.0,-999.0,41,-99.99,,,-99.99,,2013-02-12 06:32:00,
2013-02-12 01:42:00,51.0,28.0,-100.00,WNW,303,9.0,-999.0,41,-99.99,,,-99.99,,2013-02-12 06:42:00,
2013-02-12 01:52:00,49.0,28.0,-100.00,WNW,303,8.0,-999.0,44,-99.99,,,-99.99,,2013-02-12 06:52:00,
2013-02-12 02:02:00,49.0,28.0,-100.00,WNW,303,8.0,-999.0,44,-99.99,,,-99.99,,2013-02-12 07:02:00,
2013-02-12 02:12:00,49.0,28.0,-100.00,WNW,303,8.0,-999.0,44,-99.99,,,-99.99,,2013-02-12 07:12:00,
2013-02-12 02:22:00,49.0,28.0,-100.00,WNW,297,9.0,-999.0,45,-99.99,,,-99.99,,2013-02-12 07:22:00,
2013-02-12 02:32:00,49.0,28.0,-100.00,WNW,297,9.0,-999.0,45,-99.99,,,-99.99,,2013-02-12 07:32:00,
2013-02-12 02:42:00,49.0,28.0,-100.00,WNW,297,9.0,-999.0,45,-99.99,,,-99.99,,2013-02-12 07:42:00,
2013-02-12 02:52:00,48.0,27.0,-100.00,WNW,287,11.0,-999.0,43,-99.99,,,-99.99,,2013-02-12 07:52:00,
2013-02-12 03:01:00,48.0,27.0,-100.00,WNW,287,11.0,-999.0,43,-99.99,,,-99.99,,2013-02-12 08:01:00,
2013-02-12 03:11:00,48.0,27.0,-100.00,WNW,287,11.0,-999.0,43,-99.99,,,-99.99,,2013-02-12 08:11:00,
2013-02-12 03:21:00,49.0,24.0,-100.00,WNW,295,16.0,-999.0,37,-99.99,,,-99.99,,2013-02-12 08:21:00,
2013-02-12 03:32:00,49.0,24.0,-100.00,WNW,295,16.0,-999.0,37,-99.99,,,-99.99,,2013-02-12 08:32:00,
2013-02-12 03:42:00,49.0,24.0,-100.00,WNW,295,16.0,-999.0,37,-99.99,,,-99.99,,2013-02-12 08:42:00,
2013-02-12 03:52:00,49.0,24.0,-100.00,WNW,286,16.0,-999.0,37,-99.99,,,-99.99,,2013-02-12 08:52:00,
2013-02-12 04:02:00,49.0,24.0,-100.00,WNW,286,16.0,-999.0,37,-99.99,,,-99.99,,2013-02-12 09:02:00,
2013-02-12 04:11:00,49.0,24.0,-100.00,WNW,286,16.0,-999.0,37,-99.99,,,-99.99,,2013-02-12 09:11:00,
2013-02-12 04:22:00,49.0,24.0,-100.00,WNW,291,16.0,-999.0,38,-99.99,,,-99.99,,2013-02-12 09:22:00,
2013-02-12 04:32:00,49.0,24.0,-100.00,WNW,291,16.0,-999.0,38,-99.99,,,-99.99,,2013-02-12 09:32:00,
2013-02-12 04:42:00,49.0,24.0,-100.00,WNW,291,16.0,-999.0,38,-99.99,,,-99.99,,2013-02-12 09:42:00,
2013-02-12 04:52:00,48.0,24.0,-100.00,WNW,294,14.0,-999.0,38,-99.99,,,-99.99,,2013-02-12 09:52:00,
2013-02-12 05:01:00,48.0,24.0,-100.00,WNW,294,14.0,-999.0,38,-99.99,,,-99.99,,2013-02-12 10:01:00,
2013-02-12 05:11:00,48.0,24.0,-100.00,WNW,294,14.0,-999.0,38,-99.99,,,-99.99,,2013-02-12 10:11:00,
2013-02-12 05:21:00,47.0,26.0,-100.00,NW,309,11.0,-999.0,43,-99.99,,,-99.99,,2013-02-12 10:21:00,
2013-02-12 05:32:00,47.0,26.0,-100.00,NW,309,11.0,-999.0,43,-99.99,,,-99.99,,2013-02-12 10:32:00,
2013-02-12 05:43:00,47.0,26.0,-100.00,NW,309,11.0,-999.0,43,-99.99,,,-99.99,,2013-02-12 10:43:00,
2013-02-12 05:52:00,46.0,26.0,-100.00,NW,308,9.0,-999.0,45,-99.99,,,-99.99,,2013-02-12 10:52:00,
2013-02-12 06:01:00,46.0,26.0,-100.00,NW,308,9.0,-999.0,45,-99.99,,,-99.99,,2013-02-12 11:01:00,
2013-02-12 06:11:00,46.0,26.0,-100.00,NW,308,9.0,-999.0,45,-99.99,,,-99.99,,2013-02-12 11:11:00,
2013-02-12 06:22:00,46.0,26.0,-100.00,WNW,290,9.0,-999.0,44,-99.99,,,-99.99,,2013-02-12 11:22:00,
2013-02-12 06:32:00,46.0,25.0,-100.00,WNW,300,9.0,-999.0,43,-99.99,,,-99.99,,2013-02-12 11:32:00,
2013-02-12 06:42:00,46.0,25.0,-100.00,WNW,300,9.0,-999.0,43,-99.99,,,-99.99,,2013-02-12 11:42:00,
2013-02-12 06:53:00,46.0,24.0,-100.00,WNW,300,10.0,-999.0,41,-99.99,,,-99.99,,2013-02-12 11:53:00,
2013-02-12 07:02:00,46.0,23.0,-100.00,WNW,294,10.0,-999.0,41,-99.99,,,-99.99,,2013-02-12 12:02:00,
2013-02-12 07:11:00,46.0,23.0,-100.00,WNW,294,10.0,-999.0,41,-99.99,,,-99.99,,2013-02-12 12:11:00,
2013-02-12 07:22:00,45.0,23.0,-100.00,WNW,296,10.0,-999.0,40,-99.99,,,-99.99,,2013-02-12 12:22:00,
2013-02-12 07:32:00,45.0,23.0,-100.00,WNW,299,9.0,-999.0,41,-99.99,,,-99.99,,2013-02-12 12:32:00,
2013-02-12 07:42:00,45.0,23.0,-100.00,WNW,299,9.0,-999.0,41,-99.99,,,-99.99,,2013-02-12 12:42:00,
2013-02-12 07:53:00,45.0,23.0,-100.00,NW,304,9.0,-999.0,40,-99.99,,,-99.99,,2013-02-12 12:53:00,
2013-02-12 08:02:00,45.0,23.0,-100.00,NW,308,7.0,-999.0,40,-99.99,,,-99.99,,2013-02-12 13:02:00,
2013-02-12 08:11:00,45.0,23.0,-100.00,NW,308,7.0,-999.0,40,-99.99,,,-99.99,,2013-02-12 13:11:00,
2013-02-12 08:22:00,45.0,22.0,-100.00,NW,310,9.0,-999.0,40,-99.99,,,-99.99,,2013-02-12 13:22:00,
2013-02-12 08:32:00,45.0,23.0,-100.00,NW,304,9.0,-999.0,40,-99.99,,,-99.99,,2013-02-12 13:32:00,
2013-02-12 08:42:00,45.0,23.0,-100.00,NW,304,9.0,-999.0,40,-99.99,,,-99.99,,2013-02-12 13:42:00,
2013-02-12 08:52:00,45.0,23.0,-100.00,WNW,302,9.0,-999.0,40,-99.99,,,-99.99,,2013-02-12 13:52:00,
2013-02-12 09:01:00,45.0,23.0,-100.00,WNW,302,9.0,-999.0,40,-99.99,,,-99.99,,2013-02-12 14:01:00,
2013-02-12 09:12:00,45.0,23.0,-100.00,WNW,302,9.0,-999.0,40,-99.99,,,-99.99,,2013-02-12 14:12:00,
2013-02-12 09:22:00,46.0,23.0,-100.00,NW,305,9.0,-999.0,40,-99.99,,,-99.99,,2013-02-12 14:22:00,
2013-02-12 09:32:00,46.0,23.0,-100.00,NW,307,9.0,-999.0,39,-99.99,,,-99.99,,2013-02-12 14:32:00,
2013-02-12 09:42:00,46.0,23.0,-100.00,NW,307,9.0,-999.0,39,-99.99,,,-99.99,,2013-02-12 14:42:00,
2013-02-12 09:52:00,46.0,23.0,-100.00,NW,304,13.0,-999.0,39,-99.99,,,-99.99,,2013-02-12 14:52:00,
2013-02-12 10:02:00,47.0,23.0,-100.00,NW,306,13.0,-999.0,38,-99.99,,,-99.99,,2013-02-12 15:02:00,
2013-02-12 10:11:00,47.0,23.0,-100.00,NW,306,13.0,-999.0,38,-99.99,,,-99.99,,2013-02-12 15:11:00,
2013-02-12 10:21:00,47.0,23.0,-100.00,WNW,298,15.0,-999.0,37,-99.99,,,-99.99,,2013-02-12 15:21:00,
2013-02-12 10:32:00,48.0,22.0,-100.00,WNW,303,14.0,-999.0,36,-99.99,,,-99.99,,2013-02-12 15:32:00,
2013-02-12 10:42:00,48.0,22.0,-100.00,WNW,303,14.0,-999.0,36,-99.99,,,-99.99,,2013-02-12 15:42:00,
2013-02-12 10:52:00,48.0,23.0,-100.00,NW,307,11.0,-999.0,36,-99.99,,,-99.99,,2013-02-12 15:52:00,
2013-02-12 11:01:00,49.0,22.0,-100.00,NW,311,11.0,-999.0,35,-99.99,,,-99.99,,2013-02-12 16:01:00,
2013-02-12 11:11:00,49.0,22.0,-100.00,NW,311,11.0,-999.0,35,-99.99,,,-99.99,,2013-02-12 16:11:00,
2013-02-12 11:22:00,49.0,23.0,-100.00,NW,305,9.0,-999.0,35,-99.99,,,-99.99,,2013-02-12 16:22:00,
2013-02-12 11:32:00,49.0,22.0,-100.00,NW,308,11.0,-999.0,35,-99.99,,,-99.99,,2013-02-12 16:32:00,
2013-02-12 11:42:00,49.0,22.0,-100.00,NW,308,11.0,-999.0,35,-99.99,,,-99.99,,2013-02-12 16:42:00,
2013-02-12 11:52:00,50.0,22.0,-100.00,NW,315,9.0,-999.0,34,-99.99,,,-99.99,,2013-02-12 16:52:00,
2013-02-12 12:01:00,50.0,22.0,-100.00,WNW,299,13.0,-999.0,33,-99.99,,,-99.99,,2013-02-12 17:01:00,
2013-02-12 12:12:00,50.0,22.0,-100.00,WNW,299,13.0,-999.0,33,-99.99,,,-99.99,,2013-02-12 17:12:00,
2013-02-12 12:21:00,50.0,22.0,-100.00,WNW,301,14.0,-999.0,32,-99.99,,,-99.99,,2013-02-12 17:21:00,
2013-02-12 12:32:00,50.0,22.0,-100.00,WNW,296,14.0,-999.0,32,-99.99,,,-99.99,,2013-02-12 17:32:00,
2013-02-12 12:42:00,50.0,22.0,-100.00,WNW,296,14.0,-999.0,32,-99.99,,,-99.99,,2013-02-12 17:42:00,
2013-02-12 12:52:00,51.0,22.0,-100.00,WNW,297,16.0,-999.0,32,-99.99,,,-99.99,,2013-02-12 17:52:00,
2013-02-12 13:02:00,51.0,22.0,-100.00,WNW,295,12.0,-999.0,31,-99.99,,,-99.99,,2013-02-12 18:02:00,
2013-02-12 13:12:00,51.0,22.0,-100.00,WNW,295,12.0,-999.0,31,-99.99,,,-99.99,,2013-02-12 18:12:00,
2013-02-12 13:23:00,52.0,22.0,-100.00,NW,309,10.0,-999.0,31,-99.99,,,-99.99,,2013-02-12 18:23:00,
2013-02-12 13:32:00,52.0,22.0,-100.00,WNW,295,10.0,-999.0,30,-99.99,,,-99.99,,2013-02-12 18:32:00,
2013-02-12 13:42:00,52.0,22.0,-100.00,WNW,295,10.0,-999.0,30,-99.99,,,-99.99,,2013-02-12 18:42:00,
2013-02-12 13:52:00,53.0,21.0,-100.00,WNW,303,11.0,-999.0,29,-99.99,,,-99.99,,2013-02-12 18:52:00,
2013-02-12 14:02:00,53.0,22.0,-100.00,WNW,297,11.0,-999.0,29,-99.99,,,-99.99,,2013-02-12 19:02:00,
2013-02-12 14:11:00,53.0,22.0,-100.00,WNW,297,11.0,-999.0,29,-99.99,,,-99.99,,2013-02-12 19:11:00,
2013-02-12 14:21:00,53.0,22.0,-100.00,NW,306,10.0,-999.0,29,-99.99,,,-99.99,,2013-02-12 19:21:00,
2013-02-12 14:32:00,53.0,22.0,-100.00,WNW,300,10.0,-999.0,29,-99.99,,,-99.99,,2013-02-12 19:32:00,
2013-02-12 14:42:00,53.0,22.0,-100.00,WNW,300,10.0,-999.0,29,-99.99,,,-99.99,,2013-02-12 19:42:00,
2013-02-12 14:52:00,54.0,22.0,-100.00,NW,314,8.0,-999.0,28,-99.99,,,-99.99,,2013-02-12 19:52:00,
2013-02-12 15:01:00,54.0,22.0,-100.00,NNW,330,7.0,-999.0,28,-99.99,,,-99.99,,2013-02-12 20:01:00,
2013-02-12 15:11:00,54.0,22.0,-100.00,NNW,330,7.0,-999.0,28,-99.99,,,-99.99,,2013-02-12 20:11:00,
2013-02-12 15:21:00,54.0,22.0,-100.00,NNW,334,7.0,-999.0,29,-99.99,,,-99.99,,2013-02-12 20:21:00,
2013-02-12 15:32:00,54.0,22.0,-100.00,WNW,301,8.0,-999.0,28,-99.99,,,-99.99,,2013-02-12 20:32:00,
2013-02-12 15:41:00,54.0,22.0,-100.00,WNW,301,8.0,-999.0,28,-99.99,,,-99.99,,2013-02-12 20:41:00,
2013-02-12 15:52:00,54.0,22.0,-100.00,WNW,290,10.0,-999.0,28,-99.99,,,-99.99,,2013-02-12 20:52:00,
2013-02-12 16:02:00,55.0,22.0,-100.00,West,267,9.0,-999.0,27,-99.99,,,-99.99,,2013-02-12 21:02:00,
2013-02-12 16:11:00,55.0,22.0,-100.00,West,267,9.0,-999.0,27,-99.99,,,-99.99,,2013-02-12 21:11:00,
2013-02-12 16:21:00,55.0,22.0,-100.00,West,269,8.0,-999.0,27,-99.99,,,-99.99,,2013-02-12 21:21:00,
2013-02-12 16:32:00,55.0,22.0,-100.00,West,272,7.0,-999.0,27,-99.99,,,-99.99,,2013-02-12 21:32:00,
2013-02-12 16:42:00,55.0,22.0,-100.00,West,272,7.0,-999.0,27,-99.99,,,-99.99,,2013-02-12 21:42:00,
2013-02-12 16:52:00,55.0,22.0,-100.00,West,268,8.0,-999.0,27,-99.99,,,-99.99,,2013-02-12 21:52:00,
2013-02-12 17:01:00,55.0,22.0,-100.00,WSW,257,5.0,-999.0,27,-99.99,,,-99.99,,2013-02-12 22:01:00,
2013-02-12 17:12:00,55.0,22.0,-100.00,WSW,257,5.0,-999.0,27,-99.99,,,-99.99,,2013-02-12 22:12:00,
2013-02-12 17:21:00,55.0,22.0,-100.00,SSW,213,7.0,-999.0,27,-99.99,,,-99.99,,2013-02-12 22:21:00,
2013-02-12 17:32:00,55.0,23.0,-100.00,South,175,7.0,-999.0,29,-99.99,,,-99.99,,2013-02-12 22:32:00,
2013-02-12 17:42:00,55.0,23.0,-100.00,South,175,7.0,-999.0,29,-99.99,,,-99.99,,2013-02-12 22:42:00,
2013-02-12 17:52:00,54.0,23.0,-100.00,South,191,6.0,-999.0,29,-99.99,,,-99.99,,2013-02-12 22:52:00,
2013-02-12 18:01:00,54.0,23.0,-100.00,South,191,6.0,-999.0,29,-99.99,,,-99.99,,2013-02-12 23:01:00,
2013-02-12 18:11:00,54.0,23.0,-100.00,South,191,6.0,-999.0,29,-99.99,,,-99.99,,2013-02-12 23:11:00,
2013-02-12 18:21:00,54.0,23.0,-100.00,SSW,208,4.0,-999.0,29,-99.99,,,-99.99,,2013-02-12 23:21:00,
2013-02-12 18:32:00,55.0,23.0,-100.00,WNW,293,3.0,-999.0,29,-99.99,,,-99.99,,2013-02-12 23:32:00,
2013-02-12 18:42:00,55.0,23.0,-100.00,WNW,293,3.0,-999.0,29,-99.99,,,-99.99,,2013-02-12 23:42:00,
2013-02-12 18:52:00,54.0,23.0,-100.00,NNW,332,4.0,-999.0,30,-99.99,,,-99.99,,2013-02-12 23:52:00,
2013-02-12 19:02:00,54.0,23.0,-100.00,NNW,342,4.0,-999.0,30,-99.99,,,-99.99,,2013-02-13 00:02:00,
2013-02-12 19:11:00,54.0,23.0,-100.00,NNW,342,4.0,-999.0,30,-99.99,,,-99.99,,2013-02-13 00:11:00,
2013-02-12 19:22:00,54.0,23.0,-100.00,NNW,345,3.0,-999.0,29,-99.99,,,-99.99,,2013-02-13 00:22:00,
2013-02-12 19:32:00,54.0,24.0,-100.00,NNW,344,3.0,-999.0,30,-99.99,,,-99.99,,2013-02-13 00:32:00,
2013-02-12 19:42:00,54.0,24.0,-100.00,NNW,344,3.0,-999.0,30,-99.99,,,-99.99,,2013-02-13 00:42:00,
2013-02-12 19:52:00,54.0,24.0,-100.00,NNE,27,2.0,-999.0,32,-99.99,,,-99.99,,2013-02-13 00:52:00,
2013-02-12 20:01:00,53.0,24.0,-100.00,East,86,3.0,-999.0,32,-99.99,,,-99.99,,2013-02-13 01:01:00,
2013-02-12 20:11:00,53.0,24.0,-100.00,East,86,3.0,-999.0,32,-99.99,,,-99.99,,2013-02-13 01:11:00,
2013-02-12 20:21:00,53.0,25.0,-100.00,ENE,71,2.0,-999.0,32,-99.99,,,-99.99,,2013-02-13 01:21:00,
2013-02-12 20:31:00,53.0,25.0,-100.00,NE,46,2.0,-999.0,34,-99.99,,,-99.99,,2013-02-13 01:31:00,
2013-02-12 20:42:00,53.0,25.0,-100.00,NE,46,2.0,-999.0,34,-99.99,,,-99.99,,2013-02-13 01:42:00,
2013-02-12 20:52:00,53.0,25.0,-100.00,NE,34,1.0,-999.0,34,-99.99,,,-99.99,,2013-02-13 01:52:00,
2013-02-12 21:01:00,51.0,26.0,-100.00,NE,50,6.0,-999.0,37,-99.99,,,-99.99,,2013-02-13 02:01:00,
2013-02-12 21:11:00,51.0,26.0,-100.00,NE,50,6.0,-999.0,37,-99.99,,,-99.99,,2013-02-13 02:11:00,
2013-02-12 21:22:00,47.0,27.0,-100.00,NE,45,7.0,-999.0,44,-99.99,,,-99.99,,2013-02-13 02:22:00,
2013-02-12 21:32:00,46.0,26.0,-100.00,NE,47,7.0,-999.0,46,-99.99,,,-99.99,,2013-02-13 02:32:00,
2013-02-12 21:42:00,46.0,26.0,-100.00,NE,47,7.0,-999.0,46,-99.99,,,-99.99,,2013-02-13 02:42:00,
2013-02-12 21:52:00,45.0,27.0,-100.00,NE,45,7.0,-999.0,47,-99.99,,,-99.99,,2013-02-13 02:52:00,
2013-02-12 22:01:00,45.0,27.0,-100.00,ENE,67,8.0,-999.0,49,-99.99,,,-99.99,,2013-02-13 03:01:00,
2013-02-12 22:12:00,45.0,27.0,-100.00,ENE,67,8.0,-999.0,49,-99.99,,,-99.99,,2013-02-13 03:12:00,
2013-02-12 22:21:00,44.0,27.0,-100.00,ENE,67,10.0,-999.0,50,-99.99,,,-99.99,,2013-02-13 03:21:00,
2013-02-12 22:32:00,44.0,27.0,-100.00,ENE,74,7.0,-999.0,51,-99.99,,,-99.99,,2013-02-13 03:32:00,
2013-02-12 22:42:00,44.0,27.0,-100.00,ENE,74,7.0,-999.0,51,-99.99,,,-99.99,,2013-02-13 03:42:00,
2013-02-12 22:52:00,43.0,27.0,-100.00,East,80,6.0,-999.0,52,-99.99,,,-99.99,,2013-02-13 03:52:00,
2013-02-12 23:01:00,43.0,27.0,-100.00,ENE,77,7.0,-999.0,53,-99.99,,,-99.99,,2013-02-13 04:01:00,
2013-02-12 23:11:00,43.0,27.0,-100.00,ENE,77,7.0,-999.0,53,-99.99,,,-99.99,,2013-02-13 04:11:00,
2013-02-12 23:21:00,42.0,27.0,-100.00,ENE,77,6.0,-999.0,54,-99.99,,,-99.99,,2013-02-13 04:21:00,
2013-02-12 23:32:00,42.0,27.0,-100.00,ENE,70,7.0,-999.0,55,-99.99,,,-99.99,,2013-02-13 04:32:00,
2013-02-12 23:42:00,42.0,27.0,-100.00,ENE,70,7.0,-999.0,55,-99.99,,,-99.99,,2013-02-13 04:42:00,
2013-02-12 23:52:00,41.0,27.0,-100.00,ENE,59,7.0,-999.0,55,-99.99,,,-99.99,,2013-02-13 04:52:00,